KCAE Airport (Columbia Metropolitan) Information

FAA: CAE - ICAO: KCAE

KCAE Airport Location

State South Carolina
County Lexington
City Columbia
KCAE Airport is 5 miles southwest of Columbia, SC.
Latitude 33-56-19.8160N
Longitude 081-07-10.3300W
Elevation 236ft

KCAE Airport METARs

METAR KCAE 060556Z 03006KT 10SM FEW043 FEW075 SCT110 24/23 A3002 RMK AO2 LTG DSNT SE AND S RAE40 SLP163 CB DSNT SE AND S P0001 60018 T02390228 10317 20233 58005
Altimeter 30.02"
Temperature 23.9°C (75.0°F)
Wind 30° at 6KT
Clouds few at 4,300ft few at 7,500ft scattered at 11,000ft
Visibility 10.0mi
Time observed: 2022-07-06T05:56:00Z

KCAE Airport Details

Status Operational
Activation June 1942
Ownership Public
Usage Public
Chart CHARLOTTE
ATC on-site Yes
Beacon schedule sunset-sunrise
Beacon color clear green

KCAE Airport Contacts

Owner RICHLAND LEXINGTON
Owner address 3250 AIRPORT BLVD, SUITE 10, WEST COLUMBIA, SC 29170
Owner phone 803-822-5050
Manager SANTOS PANTOJA
Manager address 475 SWIFT CREEK ROAD, REMBERT, SC 29128
Manager phone 803-425-1111

KCAE Airport (Columbia Metropolitan) Radio Frequencies

KCAE (Airport) Radio Frequencies

UNICOM 122.95
Common traffic advisory frequency (CTAF) N/A